Location: Arboyeti
(42.1122°N, 44.6017°E)
Time: 04:30:50
(UTC+00:00)

MetOp-B - Pass Details

Date: 19 April 2021
Orbit: 819 x 822 km, 98.7° (Epoch: 09 May)

Event Time Altitude Azimuth Distance (km) Brightness Sun altitude
Exits shadow 17:49:40 40° 152° (SSE) 1,188 4.5 -20.9°
Maximum altitude 17:51:38 77° 74° (ENE) 846 4.0 -21.1°
Drops below altitude 10° 17:57:00 10° 349° (N) 2,426 7.3 -21.9°
Sets 17:59:21 0° 348° (NNW) 3,363 8.1 -22.2°
